Location: Fontevrault
(47.1823°N, 0.0493°E)
Time: 08:54:34
(UTC+00:00)

Cosmos 1331 Rocket - Pass Details

Date: 16 June 2021
Orbit: 749 x 778 km, 74.0° (Epoch: 26 July)

Event Time Altitude Azimuth Distance (km) Brightness Sun altitude
Exits shadow 21:22:12 - 180° (S) 2,459 6.1 -10.9°
Reaches altitude 10° 21:22:39 10° 179° (S) 2,292 6.0 -11.0°
Maximum altitude 21:27:39 49° 105° (ESE) 986 4.3 -11.5°
Drops below altitude 10° 21:32:43 10° 32° (NNE) 2,327 6.8 -12.0°
Sets 21:35:11 0° 27° (NNE) 3,262 7.7 -12.2°
